Dewpoint
62 59 57 56 57 56 49 41 22 29 27 24 25 26 20 28 35 30 27 29 25 38 46 46 47 47 43 43 43 42 42 42 43 39 39 43 47 48 48 49 49 49 50 50 50 50 50 53 57 60 63 64 66 67 68 69 69 69 70 70 69 69 70 70 70 70 69 69 69 68 69 69 69 69 69 68 69 69 68 68 68 67 67 66 66 64 63 63 63 63 63 62 62 62 61 62 62
59 58 56 55 54 46 42 36 29 28 28 24 23 28 28 31 28 31 29 31 32 41 45 45 47 47 47 47 47 44 42 44 43 43 48 50 49 48 48 49 50 50 50 50 50 50 50 50 56 60 63 65 66 67 68 69 69 69 69 69 69 69 70 70 69 69 69 69 69 68 69 69 69 69 69 69 68 68 68 68 67 67 65 64 64 64 63 63 64 63 63 62 62 62 61 60 60
58 57 47 49 47 46 43 37 23 25 23 18 18 26 28 22 24 27 31 30 30 39 45 45 46 45 45 45 41 42 41 45 46 48 48 48 48 49 49 50 49 50 49 50 50 49 49 51 57 60 63 65 67 68 69 68 69 69 69 69 69 69 70 69 69 69 68 69 68 69 69 69 69 68 69 68 68 68 68 67 67 67 66 66 65 64 65 64 63 64 63 62 62 61 60 61 61
57 56 49 46 43 42 37 34 29 27 22 20 22 24 27 24 23 28 30 33 38 45 45 45 44 44 44 41 42 43 43 43 46 48 48 47 48 47 50 49 49 48 49 50 49 49 49 52 57 61 63 65 67 68 68 68 68 69 69 69 69 70 69 68 69 69 68 68 68 69 69 69 68 68 69 68 68 68 67 66 66 66 65 65 64 64 64 63 64 63 62 62 61 61 60 60 60
56 57 49 45 42 37 36 33 29 28 19 25 12 21 33 34 28 35 42 44 45 45 45 45 42 44 45 44 45 41 40 44 46 47 45 44 45 46 49 49 48 48 48 48 48 49 49 53 59 61 63 65 67 67 67 68 68 69 69 69 69 69 68 69 69 69 68 68 68 69 69 69 68 68 68 67 67 66 66 66 65 65 64 63 63 63 63 63 63 62 61 61 61 60 60 61 61
53 53 51 47 41 43 36 30 29 27 24 27 25 26 29 32 39 39 39 44 45 45 45 44 42 43 43 44 44 42 44 43 45 46 45 46 46 48 49 49 48 49 48 49 48 50 50 54 60 62 64 66 67 66 67 68 68 68 69 69 69 69 68 69 68 69 68 68 68 69 69 68 68 67 67 67 66 66 66 65 64 64 64 63 63 62 62 62 62 61 62 62 62 62 62 62 61
49 46 46 43 42 41 33 29 28 30 32 29 27 29 31 33 37 40 40 41 43 45 45 44 44 42 40 41 42 45 45 46 46 45 47 46 46 48 48 47 48 49 48 49 49 49 50 57 59 61 64 66 66 66 67 68 68 68 68 69 69 69 68 68 68 68 68 68 68 69 68 68 67 67 67 66 66 66 65 64 64 64 63 63 63 62 63 62 62 62 62 62 61 62 62 61 60
53 45 43 38 35 34 32 31 33 32 34 31 33 33 35 37 39 41 39 38 38 42 44 45 45 42 42 43 40 43 44 45 45 45 45 45 46 48 48 47 49 50 49 49 49 49 52 55 58 60 63 66 66 66 67 67 68 68 68 68 68 68 68 68 68 68 68 68 67 68 68 68 67 66 66 66 66 65 64 64 64 63 62 62 62 62 62 62 62 62 62 61 60 60 59 60 60
46 47 44 36 32 31 29 30 32 35 36 36 35 38 42 40 39 38 39 41 43 43 44 45 44 40 41 42 42 43 44 44 45 45 45 45 45 47 49 48 48 51 51 49 49 49 50 53 56 59 61 65 66 66 66 67 67 67 68 68 68 68 68 68 68 68 68 68 67 68 68 67 67 67 66 65 65 65 64 64 64 63 62 62 62 61 61 61 60 61 61 60 59 60 60 59 59
44 42 38 35 33 28 27 29 29 31 31 34 32 30 31 32 33 41 40 42 43 45 44 45 44 41 42 42 43 43 43 43 43 44 44 44 45 47 49 48 48 50 50 49 49 49 50 52 54 57 59 62 66 67 67 67 67 67 68 68 68 68 68 68 68 68 68 68 68 68 68 67 67 66 66 65 64 65 64 63 62 62 61 60 61 60 60 59 59 59 59 59 58 58 60 60 59
40 41 41 35 30 28 28 26 29 31 31 33 34 34 33 33 36 40 43 43 45 44 44 44 43 43 43 42 43 44 46 45 43 43 44 44 46 47 47 48 48 48 48 50 49 49 50 50 52 54 57 59 63 64 65 66 67 67 68 68 68 68 68 68 68 68 68 68 68 68 67 67 67 66 65 65 65 64 63 63 62 62 61 61 60 61 60 59 58 58 58 58 58 60 59 59 58
38 36 36 32 30 30 30 29 32 33 33 34 34 36 41 41 46 44 44 43 44 44 44 43 42 43 42 41 43 44 45 44 44 43 43 44 44 47 47 45 47 48 48 48 48 49 50 49 49 51 55 58 60 62 63 64 65 66 67 68 68 68 68 68 67 67 67 67 67 67 66 66 66 66 65 65 65 64 63 63 62 61 61 62 60 60 59 58 58 57 59 58 58 58 59 59 58
39 36 33 30 31 30 31 30 32 35 34 33 34 36 44 46 44 44 44 45 45 45 45 46 46 44 41 42 44 45 46 45 45 43 43 43 44 45 46 45 47 48 48 49 47 49 50 49 48 50 53 56 56 59 60 61 62 63 65 65 66 67 67 67 67 66 66 66 65 66 66 66 65 64 64 64 64 63 63 62 62 61 60 60 61 60 58 58 58 57 58 58 58 58 58 58 58
40 39 35 31 31 30 30 32 30 31 31 32 36 39 46 45 46 46 45 44 44 44 46 48 46 44 42 42 44 43 44 44 44 43 43 43 44 45 46 46 47 47 47 47 47 47 48 48 49 49 51 52 53 54 58 58 59 61 62 63 64 65 65 65 65 65 65 65 64 64 65 65 65 64 64 64 64 63 63 62 61 60 60 58 58 58 58 57 57 59 59 58 57 58 58 57 57
39 39 35 31 30 29 31 30 31 29 31 33 35 43 44 46 47 47 46 44 46 46 48 48 46 44 42 42 42 42 43 44 43 43 43 42 44 45 46 46 47 47 46 45 46 47 48 48 48 48 50 51 52 52 52 55 57 58 59 60 61 63 64 64 64 63 62 62 62 63 63 63 63 63 63 63 63 62 62 61 60 60 59 59 58 58 57 57 58 58 57 57 57 57 57 57 56
41 38 34 32 29 29 32 31 32 30 32 34 34 45 43 45 47 46 47 46 45 47 47 46 46 44 44 42 43 44 45 43 42 42 41 42 42 44 45 46 45 45 45 45 46 47 47 47 47 48 50 51 51 52 53 54 56 56 57 57 58 59 61 61 60 60 60 60 60 61 61 61 61 62 62 61 60 59 59 58 58 60 59 58 58 58 57 57 57 57 57 57 57 57 57 57 56
40 39 33 29 32 30 33 31 32 29 33 35 37 41 39 41 44 46 46 47 46 45 46 47 47 46 44 44 44 45 44 44 43 41 41 41 41 43 45 45 45 45 47 46 45 47 47 48 47 48 49 50 51 51 53 54 54 56 55 56 56 56 57 58 58 58 58 58 59 58 59 59 58 59 59 58 58 57 57 57 58 59 59 59 58 58 57 57 57 57 57 57 57 57 57 56 55
38 35 32 31 32 31 34 33 33 32 34 35 36 41 42 41 43 44 44 43 43 43 44 47 46 46 46 46 43 44 44 41 41 41 41 41 40 42 45 47 46 47 48 49 48 47 47 48 48 47 48 50 50 51 52 53 54 54 53 52 52 54 55 55 55 55 55 58 57 57 57 57 57 57 57 55 55 56 56 56 57 59 59 59 58 58 58 57 57 57 57 57 57 56 55 52 52
37 32 32 33 32 34 36 35 36 34 34 35 37 42 43 43 43 43 41 40 41 42 44 43 45 46 46 45 43 41 41 40 40 41 41 41 42 43 45 48 48 47 48 49 50 49 47 47 48 48 47 49 50 50 50 50 52 53 53 53 52 52 52 52 53 53 54 54 54 54 53 55 55 55 55 54 53 55 55 56 56 58 58 59 58 58 58 57 56 56 56 56 54 52 47 46 46
37 35 33 33 34 35 36 37 37 37 37 36 37 40 42 43 43 43 41 40 40 41 40 41 42 44 45 46 42 43 42 40 40 40 41 41 42 43 45 47 49 49 49 50 51 50 47 47 48 47 48 48 49 50 49 49 51 52 52 52 51 51 51 51 51 52 52 52 52 53 53 53 54 54 53 52 53 54 54 55 55 55 56 57 57 57 57 56 55 54 54 52 48 45 42 41 40
35 34 33 33 35 34 35 37 38 39 39 38 40 40 40 41 42 41 40 38 39 40 42 41 40 41 43 45 44 43 42 41 40 40 41 41 42 43 45 47 49 50 50 49 50 50 48 47 48 47 47 47 48 49 49 49 49 50 51 51 51 50 50 50 51 51 51 51 51 52 52 52 52 52 52 51 51 51 51 51 53 54 54 53 52 50 47 48 46 44 41 40 38 39 38 37 37
35 34 35 34 35 34 36 36 38 38 41 40 40 40 40 40 41 40 41 39 35 35 37 42 43 42 42 42 44 43 42 42 41 41 41 41 42 42 43 45 47 49 49 49 50 50 49 48 48 48 47 47 47 49 49 49 49 50 49 49 49 49 49 49 50 50 50 51 51 51 51 51 51 50 50 49 48 48 48 47 48 49 49 47 47 44 42 40 39 37 36 35 33 35 35 34 35
31 32 33 35 35 33 35 40 42 41 40 40 38 40 40 39 38 38 41 39 37 39 39 40 42 43 43 42 43 42 43 42 42 41 41 41 41 42 43 44 46 47 49 49 50 50 50 48 47 48 48 48 48 48 48 48 48 50 49 48 49 47 48 48 49 49 49 49 50 50 51 50 50 49 49 48 47 47 46 45 45 46 46 44 44 41 37 36 35 34 33 31 31 32 32 32 33
33 31 33 32 34 34 35 34 35 36 36 36 40 39 38 38 37 37 38 39 40 40 40 41 41 41 43 41 42 43 43 43 42 42 42 42 42 43 43 43 45 45 47 49 49 50 49 49 48 47 47 49 48 48 47 47 48 48 48 47 48 47 47 48 48 48 48 49 49 49 50 50 49 49 48 47 45 45 45 43 42 43 43 42 41 39 35 33 32 31 30 29 30 30 31 31 31
31 31 32 33 34 34 34 35 33 34 34 36 38 37 34 37 37 36 35 35 37 38 38 39 41 41 41 42 42 42 42 42 42 42 42 42 43 43 43 43 43 45 47 48 48 49 49 49 48 47 47 48 49 48 47 47 47 47 46 47 47 47 46 47 46 45 47 48 48 47 47 47 47 47 47 45 44 44 42 41 41 42 41 39 39 37 35 32 30 30 30 29 28 28 29 29 30
31 31 33 33 32 32 31 31 30 30 33 37 34 32 33 33 37 35 34 35 37 36 37 38 38 39 41 42 43 42 42 42 42 42 42 43 42 42 43 43 43 44 46 47 47 48 49 49 48 48 47 47 48 48 48 47 47 46 46 47 46 46 45 44 44 44 45 46 45 46 46 47 47 46 45 43 44 42 41 40 40 40 40 38 38 36 34 32 29 28 28 28 27 27 27 28 29
33 31 30 29 29 29 28 27 25 28 30 33 26 26 24 29 31 27 31 35 38 37 37 39 39 40 40 41 42 43 43 43 43 43 42 42 42 42 43 43 43 43 44 45 47 47 48 48 48 48 48 47 48 48 48 48 47 46 46 46 45 46 44 41 42 43 43 44 45 44 45 45 46 45 44 43 43 42 40 40 39 38 38 36 37 35 33 32 29 29 28 27 27 26 26 28 27
28 28 28 27 25 25 25 26 26 26 23 26 28 26 27 30 32 28 26 31 35 36 37 37 37 38 39 40 40 41 42 43 43 42 43 42 43 43 43 43 43 44 44 44 45 47 47 47 48 48 48 47 47 48 48 48 47 47 46 45 45 45 43 42 40 41 42 43 43 44 44 44 44 44 44 42 43 42 40 40 39 38 38 36 35 33 32 30 29 28 27 27 26 25 25 25 25
29 29 26 25 26 25 25 24 25 23 22 30 29 30 28 26 31 30 33 35 37 36 38 38 38 38 39 39 39 39 41 42 42 42 43 43 44 44 44 44 44 44 44 44 44 45 46 47 47 48 48 47 47 48 48 48 47 47 46 45 44 44 42 41 41 40 41 41 42 42 42 43 43 44 43 42 42 41 40 40 38 38 37 35 33 32 31 29 28 27 27 27 25 25 24 23 26
29 28 27 25 25 22 24 26 29 27 27 31 29 20 25 23 23 27 31 34 35 34 34 35 35 35 35 36 37 38 39 40 41 43 43 44 44 44 44 44 44 44 44 44 44 44 45 46 46 47 47 47 47 48 48 48 47 47 46 45 44 43 42 41 41 39 39 39 41 42 42 41 42 43 43 42 41 40 40 40 38 37 35 34 32 30 29 28 27 26 26 25 28 24 23 22 21
24 26 27 24 22 19 22 25 27 22 29 33 29 23 26 28 27 27 33 34 33 33 34 34 34 34 33 33 33 35 36 38 39 40 42 43 43 44 44 44 44 44 44 44 44 44 44 45 46 46 46 47 47 47 47 47 47 47 46 45 44 43 42 42 42 39 37 38 39 41 42 41 41 42 42 42 41 40 40 41 40 38 34 32 32 31 29 28 27 26 26 24 25 23 23 23 20
25 20 18 22 20 20 20 25 25 22 26 35 30 26 26 25 27 31 34 33 33 32 32 32 32 32 32 32 32 32 33 35 37 39 40 41 43 43 43 44 44 44 44 44 44 44 44 44 45 45 46 46 47 47 47 47 47 46 45 45 44 43 42 42 41 41 38 36 37 39 41 41 40 40 40 41 41 39 39 40 40 38 36 33 32 30 29 27 27 27 26 25 24 23 23 22 22
22 19 20 19 22 22 19 21 27 28 30 32 30 27 29 26 29 29 30 30 28 29 30 30 30 29 30 30 31 31 31 31 33 34 36 39 41 43 43 43 44 44 44 44 44 44 44 44 44 45 45 45 46 47 47 47 46 46 45 44 43 43 43 43 40 40 38 36 35 37 39 40 40 39 39 40 41 40 39 38 38 35 33 31 30 30 29 28 27 28 25 25 24 23 23 22 22
19 23 21 22 20 20 18 20 26 31 24 23 25 25 26 25 25 24 24 24 25 26 25 24 23 23 23 25 27 28 28 30 30 30 31 35 39 42 43 43 43 44 44 44 44 44 44 43 43 44 44 45 46 46 46 46 45 45 44 42 42 42 43 43 42 42 41 40 36 35 37 38 39 39 38 39 40 40 39 39 37 36 33 31 29 28 28 27 26 26 25 25 24 23 22 21 20
16 17 17 18 20 21 19 20 22 24 26 24 24 23 22 22 22 22 22 22 22 21 20 20 19 19 20 23 25 26 27 28 28 28 29 33 36 39 42 43 44 44 44 44 44 44 44 43 42 43 43 44 44 45 45 45 43 40 39 39 39 40 40 41 41 41 41 41 41 40 39 39 38 39 38 36 37 39 39 39 35 34 33 32 30 27 27 26 26 26 25 24 26 24 22 21 20
18 18 19 20 19 20 21 22 24 24 23 24 22 21 20 20 19 20 20 19 18 18 17 17 18 19 20 21 23 24 25 26 27 29 30 31 34 37 38 41 43 44 44 44 44 44 43 42 42 42 42 43 43 43 44 43 40 38 37 36 36 37 37 37 37 39 38 39 39 40 40 39 39 39 39 37 36 36 38 39 38 36 36 36 34 30 30 25 26 26 26 26 24 24 23 22 20
21 23 22 22 22 23 24 25 26 23 22 21 21 21 20 19 19 19 19 19 19 19 19 19 20 20 20 21 22 24 24 25 28 29 29 30 33 35 37 39 40 41 42 43 43 43 43 42 41 41 41 41 42 42 42 42 40 38 37 36 38 36 35 34 34 34 35 36 38 39 39 40 38 37 38 39 39 38 38 38 38 36 36 36 36 35 33 33 32 27 24 24 22 21 21 21 20
24 24 23 23 23 23 25 25 26 26 21 21 21 20 19 19 20 20 21 20 20 20 20 20 20 21 21 22 23 24 24 27 27 26 25 26 27 30 33 36 38 40 41 42 43 43 42 40 40 40 40 40 41 41 41 41 41 40 40 38 38 34 33 32 32 30 31 32 32 33 34 34 35 35 37 37 38 38 36 36 36 35 34 35 35 34 33 32 31 30 28 26 23 20 19 20 21
24 24 24 24 25 25 25 25 23 23 22 20 20 20 21 22 22 23 23 22 22 22 22 21 22 22 22 23 24 25 25 25 24 24 26 27 30 32 35 37 38 40 40 41 40 41 40 39 39 39 39 39 40 40 40 40 39 37 38 34 36 31 29 30 30 28 27 27 27 29 29 29 30 31 33 35 35 36 35 35 34 34 34 34 33 33 31 30 29 29 29 29 26 23 21 22 19
25 24 23 24 25 22 22 22 23 22 22 21 22 22 22 21 20 21 22 23 23 23 24 25 25 24 24 24 24 25 24 24 25 28 31 34 36 36 36 37 37 39 38 39 40 40 39 38 38 38 37 38 38 38 38 37 36 31 30 31 30 29 25 26 22 23 24 23 23 25 27 26 27 30 32 33 35 35 34 34 34 34 34 33 32 32 32 30 31 31 29 27 25 22 21 21 20
25 26 26 25 25 25 23 21 22 23 24 24 23 20 15 20 18 19 19 23 24 25 23 23 22 25 26 27 25 24 23 27 32 33 34 35 34 34 34 35 36 37 37 38 39 39 39 38 37 37 36 37 36 37 36 34 31 28 26 26 26 25 23 23 22 20 22 23 22 22 24 25 26 29 30 32 33 33 33 34 33 33 33 33 33 33 32 32 30 30 30 29 26 23 22 21 21
23 24 26 25 25 23 22 22 22 21 20 24 23 17 12 17 18 17 19 21 20 22 22 21 21 20 22 22 24 27 31 31 33 33 34 33 33 34 35 35 35 35 36 37 37 37 37 36 35 35 35 35 35 35 34 33 32 30 28 28 27 27 24 22 24 26 21 20 21 20 22 24 25 27 28 29 31 32 32 33 33 33 33 33 32 32 32 31 29 28 27 26 26 24 23 20 19
21 22 24 24 23 22 21 21 23 19 15 20 24 17 15 18 17 18 18 20 20 21 21 20 20 20 21 23 26 29 31 31 31 32 32 33 32 32 33 32 32 32 33 34 35 34 34 34 34 33 33 33 33 33 32 32 31 29 30 31 31 29 29 26 26 25 24 21 21 19 20 22 23 25 27 28 30 31 31 32 31 31 32 32 32 32 32 30 28 27 26 25 24 23 21 19 18
20 23 23 23 22 21 22 22 23 23 23 23 24 22 17 16 17 20 20 19 19 20 20 20 20 21 21 24 28 29 30 29 29 31 32 31 31 30 30 30 31 30 30 32 32 33 33 32 32 31 32 32 31 31 31 32 30 29 29 30 29 29 29 29 24 22 22 21 19 18 17 18 20 21 25 27 29 30 31 31 31 31 31 31 31 30 31 32 31 29 28 28 27 26 25 24 24
22 24 25 25 25 25 24 24 23 23 21 21 22 23 17 18 19 19 20 18 18 19 19 20 21 22 22 24 27 27 28 28 27 28 29 29 29 30 30 30 29 29 30 30 30 30 30 30 30 30 30 30 29 30 30 30 30 29 29 28 28 28 27 25 25 26 21 20 19 18 17 16 18 18 21 25 28 29 30 31 31 31 31 31 30 29 29 29 29 28 27 27 26 26 24 24 23
24 25 25 25 25 24 24 23 22 21 19 17 21 22 16 15 17 17 18 18 17 19 20 21 21 22 22 24 25 28 27 27 27 26 27 28 28 28 29 28 29 28 28 29 28 29 29 30 29 28 28 28 29 29 29 29 29 28 28 27 28 26 24 21 21 21 19 19 19 18 17 15 15 16 18 22 25 28 29 30 31 30 30 31 30 29 29 29 29 28 28 26 26 26 26 25 25
27 26 24 24 23 20 21 21 20 17 13 17 20 22 19 14 15 15 14 17 20 19 19 20 22 23 23 23 25 27 27 27 27 27 27 27 27 27 28 28 28 28 28 28 28 28 28 29 29 28 27 28 29 29 29 29 29 29 27 27 26 25 23 22 20 18 18 17 18 18 17 16 15 15 16 20 23 26 27 29 30 30 30 29 29 28 27 28 28 27 27 27 27 27 26 26 26
25 24 23 22 20 16 16 16 16 11 13 16 20 21 21 16 15 16 19 20 21 20 19 20 20 21 22 24 26 26 26 26 27 27 27 27 27 27 28 27 27 27 27 27 28 28 28 28 28 28 27 27 28 28 28 29 28 27 25 25 24 24 23 22 21 21 18 17 17 17 16 15 15 15 15 17 20 23 25 26 28 29 28 28 28 28 29 28 27 28 27 26 26 27 28 28 28
25 23 22 15 12 11 12 11 7 12 11 14 19 19 15 18 17 17 19 20 20 22 23 22 22 22 23 25 26 26 25 25 26 25 25 26 26 26 26 26 26 26 26 26 27 27 28 28 28 27 27 28 28 28 26 26 26 25 24 23 23 23 23 22 21 21 19 18 17 16 15 15 14 14 14 17 18 20 23 24 25 26 27 27 28 28 28 29 29 28 29 29 28 28 28 28 28
25 24 19 11 7 -1 4 9 2 5 10 14 19 19 16 16 17 19 18 19 20 21 22 23 23 24 25 26 26 26 25 24 24 24 24 24 24 25 25 25 25 24 24 25 25 26 26 26 26 25 25 25 26 26 24 23 24 25 23 23 22 22 21 21 21 21 20 18 17 16 16 16 15 14 14 14 15 18 21 22 24 25 26 27 27 28 28 28 28 28 28 28 29 29 29 29 29
26 25 22 20 13 9 5 1 2 6 8 12 16 11 11 12 13 21 20 21 22 22 23 24 26 26 26 26 26 24 24 23 23 23 23 23 23 23 23 23 23 23 23 23 23 24 24 23 23 23 22 22 23 22 25 23 24 22 21 21 21 20 20 20 21 21 20 20 18 16 16 15 15 15 15 15 14 16 18 20 21 23 24 25 26 27 27 27 28 27 27 27 28 28 28 29 28
25 24 24 18 19 16 10 9 5 8 13 16 11 15 17 16 18 24 24 24 23 23 23 24 25 27 26 25 25 24 23 23 23 22 22 22 22 22 22 22 22 22 22 22 22 22 23 23 22 21 21 22 21 21 21 21 22 21 22 21 21 21 21 20 20 20 20 20 20 18 17 16 14 14 14 14 14 14 16 18 20 22 23 24 25 26 26 27 27 27 26 27 27 28 28 28 28
21 24 20 23 23 20 14 19 19 18 16 18 21 19 20 20 20 21 22 22 22 23 23 23 25 26 25 25 23 22 22 22 22 22 21 21 21 21 21 21 21 20 20 20 21 21 21 21 21 22 22 21 21 21 21 21 20 20 20 20 21 20 20 20 20 20 20 20 20 20 19 19 17 15 14 13 12 12 13 16 18 20 22 23 25 25 26 26 26 26 26 26 27 27 27 27 27
25 18 23 25 25 23 19 14 11 14 14 15 15 14 14 15 15 21 21 21 21 22 22 22 25 26 25 25 23 22 22 21 21 21 21 20 20 20 20 20 20 19 19 19 19 20 20 21 20 20 20 20 20 20 20 20 20 20 20 20 20 20 20 20 20 20 20 20 20 19 18 18 18 17 15 13 12 11 11 14 15 17 20 22 23 24 25 26 26 25 26 26 26 27 27 27 27
24 22 24 21 16 16 16 17 15 17 16 17 18 19 19 18 17 18 18 19 19 20 21 21 22 24 26 24 22 22 22 21 21 20 20 19 20 20 19 19 20 20 20 19 17 17 17 18 19 19 19 19 19 20 19 19 19 19 19 19 19 20 20 20 20 20 20 19 19 19 19 19 19 19 18 17 13 11 10 10 11 13 15 18 21 22 23 24 24 24 25 25 25 26 25 25 25
28 27 25 26 22 16 14 21 12 15 15 15 15 18 15 18 18 19 19 20 20 20 20 20 21 23 25 24 22 22 22 21 20 19 19 19 20 20 18 16 16 17 17 18 18 16 15 16 17 17 18 18 19 19 19 18 18 18 18 17 17 18 19 18 19 19 19 19 19 19 19 19 19 19 18 18 16 14 13 11 10 11 12 13 15 18 20 21 22 22 22 22 22 22 22 22 22
22 24 21 24 20 24 22 19 18 19 18 17 17 15 18 18 19 19 19 20 20 20 20 21 22 23 26 24 22 22 21 20 18 18 18 18 18 18 19 18 18 16 15 14 14 14 15 15 15 16 16 17 18 18 18 17 16 16 16 15 15 16 16 16 16 17 17 17 17 18 18 18 18 18 18 18 17 16 14 12 11 12 11 12 13 15 17 18 18 18 18 18 19 19 19 19 19
25 25 24 25 23 20 21 19 24 20 21 19 18 16 20 20 22 21 21 21 21 22 23 24 24 25 25 23 22 22 21 19 19 18 18 16 17 17 17 15 15 14 13 12 13 13 13 14 14 15 15 16 17 17 16 15 14 14 14 14 13 14 14 14 14 14 15 15 15 16 16 16 16 17 17 17 17 17 15 13 10 9 10 11 12 13 14 16 16 16 17 17 17 17 17 17 17